www.pogodaiklimat.ru

Погода и климат >> Архив погоды >> Россия >> Хакасия >> Бея


ПОГОДА в Бее

  • Прогноз погоды в Бее
  • Монитор погоды в Бее

АРХИВ ПОГОДЫ в Бее

Время (UTC), дата Ветер
(напр.,м/с)
 
Видим.   Явления Облачность Т
(С)
Тd
(С)
f
(%)
Тe
(С)
Тes
(С)
Комфортность P
(гПа)
Po
(гПа)
Тmin
(С)
Tmax
(С)
R
(мм)
R24
(мм)
S
(см)
00 14.03 ЮЗ 4 н/о 10/3 600 м
[Cb cap Ac As Ci fib]
+4.9 -8.5 37 +2 +2 1027.2 970.2 +0.1
03 14.03 ЮЗ 4 20 км 10/3 600 м
[Cb cap Ac und]
+6.7 -9.2 31 +4 +4 1028.8 972.0
06 14.03 З 3
{10}
20 км 10/3 600 м
[Cb cap Ac und]
+7.8 -9.1 29 +6 +6 1028.6 972.0
09 14.03 З 4 20 км 10/3 600 м
[Cb cap Ac und]
+9.7 -11.0 22 +8 +8 1028.2 972.0
12 14.03 ЮЗ 2 20 км 10/3 600 м
[Cb cap Ac und]
+8.8 -9.0 27 +8 +8 1026.8 970.5 +9.7
15 14.03 ЮЗ 2 н/о 6/1 1000 м
[Sc Ac As Ci fib]
+5.8 -10.0 31 +4 +4 1029.0 972.0
18 14.03 В 1 н/о 5/0
[Ci fib]
-0.3 -7.1 60 -2 -2 1028.9 970.7
21 14.03 штиль 0 н/о 5/0
[Ci fib]
-5.0 -7.4 83 -6 -6 1028.5 969.3
00 15.03 Ю 1 н/о 4/0
[Ci fib]
-2.7 -6.8 73 -5 -5 1025.4 967.0 -5.1
03 15.03 ЮЗ 1 20 км 3/0
[Ci fib]
+4.2 -5.3 50 +3 +7 1023.7 966.7
06 15.03 З 1 20 км ясно +10.6 -7.2 28 +11 +20 1020.9 965.3
09 15.03 ЮВ 1 20 км ясно +15.2 -5.2 24 +16 +20 1017.2 962.7
12 15.03 ЮВ 2 20 км ясно +9.8 -5.0 35 +9 +9 1016.5 961.1 +15.2
15 15.03 штиль 0 н/о ясно -0.9 -5.1 73 -2 -2 1019.0 961.3
18 15.03 Ю 1 н/о ясно -1.1 -5.9 70 -3 -3 1019.1 961.3
21 15.03 ЮЗ 1 н/о ясно -1.5 -6.6 68 -3 -3 1019.2 961.3
00 16.03 Ю 2 н/о ясно +0.1 -6.7 60 -3 -3 1017.6 960.2 -3.2
03 16.03 СЗ 1 20 км 10/0
[Ci fib]
+6.8 -4.3 45 +6 +6 1016.0 960.0 -3.5
06 16.03 З 3 50 км 10 баллов +15.7 -14.7 11 +15 +15 1013.0 958.7
09 16.03 СЗ 2 50 км 10/3 600 м
[Cb cap Ac As Ci fib]
+15.3 -12.0 14 +15 +15 1010.2 956.0
12 16.03 З 2 20 км 10/4 600 м
[Cb cap Ac und]
+10.6 -7.2 28 +10 +10 1010.3 955.3 +16.3
15 16.03 ЮЗ 3
{12}
н/о 10/6 600 м
[Cb cap Ac und]
+4.1 -2.1 64 +1 +1 1018.0 961.3
18 16.03 З 4-10
{12}
н/о 6/1 600 м
[Cb cap Ac As Ci fib]
+2.1 -2.7 71 -3 -3 1017.8 960.7
21 16.03 З 4
{12}
н/о 10/5 600 м
[Cb cap Ac und]
+0.3 -7.2 57 -5 -5 1018.8 961.3
00 17.03 ЮЗ 4
{10}
н/о 10/3 600 м
[Cb cap Ac As Ci fib]
-1.2 -7.4 63 -6 -6 1019.6 961.8 -1.2
03 17.03 З 3 20 км 10/4 600 м
[Cb cap Ac As Ci fib]
-1.7 -9.5 55 -6 -6 1020.7 962.7 -1.8
06 17.03 З 4 50 км 10/3 1000 м
[Sc Ac As Ci fib]
+0.8 -9.5 46 -4 -4 1018.7 961.3
09 17.03 З 4
{12}
50 км 10/3 1000 м
[Sc Ac As Ci fib]
+1.7 -12.5 34 -2 -2 1018.5 961.3
12 17.03 СЗ 4
{10}
50 км 10/4 600 м
[Cb cap Ac und]
-0.9 -12.2 42 -6 -6 1020.6 962.7 +2.4
15 17.03 З 2 н/о слаб. ливневой снег 10/4 600 м
[Cb cap Ac und]
-4.1 -5.3 91 -8 -8 1022.6 964.0
18 17.03 З 3 н/о слаб. ливневой снег 10/4 600 м
[Cb cap Ac und]
-5.1 -6.5 90 -11 -11 1025.7 966.7
21 17.03 З 3 н/о ливневой снег 10 баллов -6.6 -7.8 91 -12 -12 1027.4 968.0
00 18.03 З 2 н/о ливневой снег 10/4 600 м
[Cb cap Ac und]
-7.6 -8.6 93 -12 -12 1029.2 969.4 -7.6 3 5
03 18.03 З 1 4000 м слаб. ливневой снег 10 баллов -6.3 -8.0 88 -9 -9 1033.0 973.3
06 18.03 СЗ 1 10 км в посл. час ливневой снег 10/3 600 м
[Cb cap Ac As Ci]
-4.9 -12.1 57 -7 -7 1034.2 974.7
09 18.03 ЮВ 2 20 км 10 баллов -3.5 -11.5 54 -7 -7 1033.9 974.7
12 18.03 Ю 2 20 км 1/0
[Ci fib]
-7.1 -11.9 69 -11 -11 1034.0 974.0 -2.6 0.3
15 18.03 штиль 0 н/о ясно -11.4 -14.1 80 -12 -12 1037.1 976.0
18 18.03 ЮВ 1 н/о ясно -13.0 -15.7 80 -15 -15 1037.5 976.0
21 18.03 Ю 2 н/о ясно -13.1 -15.1 85 -18 -18 1037.5 976.0
00 19.03 Ю 2 20 км ясно -13.9 -15.9 85 -19 -19 1035.6 974.1 -14.5 1
03 19.03 Ю 1 20 км 2 балла -7.0 -11.7 69 -9 -5 1034.7 974.7
06 19.03 В 2 20 км 6 баллов -2.6 -10.4 55 -6 -3 1032.2 973.3
09 19.03 Ю 1 20 км 7 баллов -1.1 -11.5 45 -2 -1 1030.5 972.0
12 19.03 Ю 2 20 км 10/1 1000 м
[Sc Ac As Ci fib]
-2.8 -9.4 60 -6 -6 1029.0 970.3 -0.3
15 19.03 ЮВ 1 н/о 10 баллов -5.8 -8.4 82 -8 -8 1031.5 972.0
18 19.03 штиль 0 н/о 10 баллов -5.4 -7.7 84 -6 -6 1031.4 972.0
21 19.03 Ю 1 н/о 10 баллов -7.8 -10.0 84 -10 -10 1033.4 973.3
00 20.03 штиль 0 20 км 10/3 1000 м
[Sc Ac und]
-7.2 -8.9 88 -8 -8 1033.1 973.2 -7.8 0
03 20.03 СЗ 2 4000 м слаб. ливневой снег 10 баллов -2.6 -6.8 73 -6 -6 1035.0 976.0
06 20.03 З 2 50 км 10 баллов -0.9 -8.8 55 -4 -4 1034.7 976.0
09 20.03 В 2 50 км 10 баллов -0.5 -8.0 57 -4 -4 1034.6 976.0
12 20.03 В 2 50 км 10/0 600 м
[Ac As Ci fib]
-1.1 -9.2 54 -4 -4 1033.5 974.8 +0.7 0.0
15 20.03 ЮВ 3 н/о ясно -6.4 -9.6 78 -12 -12 1037.3 977.3
18 20.03 штиль 0 н/о ясно -9.2 -10.8 88 -10 -10 1037.9 977.3

 

Местоположение метеостанции Бея (Хакасия, Россия): широта 53.05 долгота 90.92 высота над уровнем моря 468 м.

В архиве по умолчанию представлена погода в Бее за последнюю неделю. Архивные данные за месяц целиком и за предыдущие месяцы, начиная с января 2011 года, Вы можете получить, выбрав интересующий диапазон дат из раскрывающегося списка и нажав кнопку "Ввод!".


*Определитесь, кто Вы:
робот инопланетянин человек

Внимание! Время в таблицах - всемирное. Для получения местного времени необходимо прибавить поправку, которая равна 7 ч.

Смотрите также архив погоды в соседних городах и на ближайших метеорологических станциях:

Погода в Аскизе (Хакасия, Россия) (31 км)
Погода в Саяногорске (Хакасия, Россия) (35 км)
Погода в Карловом Створе (Хакасия, Россия) (39 км)
Погода в Черемушках (Хакасия, Россия) (39 км)
Погода в Таштыпе (Хакасия, Россия) (75 км)
Погода в Уйбате (Хакасия, Россия) (83 км)
Погода в Хакасской (Хакасия, Россия) (84 км)
Погода в Кантегире (Хакасия, Россия) (86 км)
Погода в Минусинске (Красноярский край, Россия) (91 км)
Погода в Ермаковском (Красноярский край, Россия) (104 км)

Пояснения к столбцам:

Ветер - указаны скорость ветра в м/с - средняя за 10 мин, порывы в срок и между сроками (в фигурных скобках) и направление, откуда дует ветер: С - северный, СВ - северо-восточный, В - восточный, ЮВ - юго-восточный, Ю - южный, ЮЗ - юго-западный, З - западный, СЗ - северо-западный.
Видимость - горизонтальная дальность видимости в метрах или километрах. При видимости от 1 до 10 км при отсутствии осадков обычно наблюдается дымка, при ухудшении видимости до 1 км и менее - туман. В сухую погоду видимость может ухудшаться дымом, пылью или мглою.
Явления - указаны атмосферные явления, наблюдавшиеся в срок или в последний час перед сроком; фигурными скобками обозначены явления, наблюдавшиеся между сроками (за 1-3 часа до срока); квадратными скобками обозначены град или гололедные отложения с указанием их диаметра в мм.
Облачность - указаны через наклонную черту общая и нижняя облачность в баллах и высота нижней границы облаков в метрах; квадратными скобками обозначены формы облаков: Ci - перистые, Cs - перисто-слоистые, Cc - перисто-кучевые, Ac - высококучевые, As - высокослоистые, Sc - слоисто-кучевые, Ns - слоисто-дождевые, Cu - кучевые, Cb - кучево-дождевые. Подробнее классификацию облаков см. в Атласе облаков (PDF).
T - Температура воздуха - температура, измеренная на высоте 2 м над землей.
Td - Температура точки росы - температура, при понижении до которой содержащийся в воздухе водяной пар достигнет насыщения.
f - Относительная влажность воздуха - влажноcть воздуха, измеренная на высоте 2 м над землей.
Te - Эффективная температура - температура, которую ощущает одетый по сезону человек в тени. Характеристика душности погоды. При расчете учитывается влияние влажности воздуха и скорости ветра на теплоощущения человека.
Tes - Эффективная температура на солнце - температура, которую ощущает человек, с поправкой на солнечный нагрев. Характеристика знойности погоды. Зависит от высоты солнца над горизонтом, облачности и скорости ветра. Ночью, в пасмурную погоду, а также при ветре 12 м/с и более поправка равна нулю.
P - Атмосферное давление - приведенное к уровню моря атмосферное давление.
Po - Атмосферное давление - измеренное на уровне метеостанции атмосферное давление.
Tmin - Минимальная температура - минимум температуры воздуха на высоте 2 м над землей.
Tmax - Максимальная температура - максимум температуры воздуха на высоте 2 м над землей.
R - Количество осадков - Количество выпавших осадков за период времени, мм. При наведении курсора мыши на число - период времени, за который выпало указанное количество осадков.
R24 - Количество осадков - Количество выпавших осадков за 24 часа, мм.
S - Снежный покров - Высота снежного покрова, см. При наведении курсора мыши на число - состояние снежного покрова и степень покрытия местности в баллах.